Regional & State Weather Roundups


159 
ASUS41 KLWX 091710
RWRLWX
REGIONAL WEATHER ROUNDUP
NATIONAL WEATHER SERVICE BALTIMORE MD/WASHINGTON DC
1200 PM EST FRI DEC 09 2016
Note: "FAIR" indicates few or no clouds below 12,000 feet
with no significant weather and/or obstructions to visibility.
 TC=TEMPERATURE CELSIUS
 * =Non NWS site. Station does not report precipitation (e.g. rain,
    snow, etc.), thunder, or fog.
DCZ001-MDZ009-015-VAZ040>042-051-053>054-091800-
WASHINGTON METRO
  
CITY           SKY/WX    TMP DP  RH WIND       PRES   REMARKS
WASHINGTON NAT MOSUNNY   39  17  41 NW15G25   30.33F                  
DULLES         MOSUNNY   35  16  45 NW21G31   30.33S WCI  24          
ANDREWS AFB    SUNNY     37  15  42 NW23G30   30.29F WCI  25          
FT BELVOIR     SUNNY     38  15  38 NW16      30.33S WCI  29          
QUANTICO       MOSUNNY   39  17  41 NW15G28   30.35F                  
COLLEGE PARK*  SUNNY     36  18  48 W14G22    30.31F WCI  27          
LEESBURG*      SUNNY     37  23  56 NW20G25   30.33S WCI  27          
GAITHERSBURG*  SUNNY     36  16  44 NW17G23   30.33F WCI  25          
$$
MDZ006>007-011-014-091800-
BALTIMORE METRO
  
CITY           SKY/WX    TMP DP  RH WIND       PRES   REMARKS
BWI AIRPORT    MOSUNNY   37  17  44 W18       30.29F WCI  27          
MD SCIENCE CTR   N/A     37  15  40 MISG      30.29F                  
MARTIN STATE   MOSUNNY   37  21  52 W23G31    30.29F WCI  26          
ANNAPOLIS      SUNNY     39  17  41 W12G22    30.29F                  
FORT MEADE*    SUNNY     36  18  48 W16G22    30.33S WCI  26          
$$
MDZ012-015-019>023-091800-
MARYLAND EASTERN SHORE
  
CITY           SKY/WX    TMP DP  RH WIND       PRES   REMARKS
OCEAN CITY     SUNNY     37  20  50 NW13G21   30.26F WCI  29          
SALISBURY      SUNNY     37  19  48 W12G23    30.27F                  
BAY BRIDGE AP* SUNNY     37  19  48 NW21G30   30.28F WCI  27          
CAMBRIDGE*     SUNNY     36  19  51 W17G24    30.29S WCI  25          
EASTON*        SUNNY     39  18  41 NW12G17   30.31F                  
$$
MDZ017>025-091800-
SOUTHERN MARYLAND
  
CITY           SKY/WX    TMP DP  RH WIND       PRES   REMARKS
PATUXENT RIVER MOSUNNY   39  19  44 NW16      30.30F                  
ST INIGOES     SUNNY     39  19  44 W14G22    30.30F                  
LEONARDTOWN*   SUNNY     37  18  44 NW12G18   30.32F                  
$$
MDZ003>005-091800-
NORTH CENTRAL MARYLAND
  
CITY           SKY/WX    TMP DP  RH WIND       PRES   REMARKS
FREDERICK*     MOSUNNY   36  19  51 NW14G26   30.35S WCI  27          
HAGERSTOWN APT MOSUNNY   35  15  44 W23G30    30.29F WCI  23          
WESTMINSTER*     N/A     30  16  55 W14G28    30.26F WCI  20          
$$
MDZ501>502-091800-
WESTERN MARYLAND
  
CITY           SKY/WX    TMP DP  RH WIND       PRES   REMARKS
OAKLAND*         N/A     16  14  93 W10G17    30.22S FOG     WCI   3  
CUMBERLAND*    NOT AVBL                                               
$$
VAZ025>031-091800-
SHENANDOAH VALLEY
  
CITY           SKY/WX    TMP DP  RH WIND       PRES   REMARKS
WINCHESTER*    MOSUNNY   32  16  51 NW18      30.33F WCI  20          
FRONT ROYAL*   FAIR      32  16  51 NW7G17    30.33S                  
LURAY*         FAIR      36  18  48 W14       30.33F WCI  27          
NEW MARKET*    FAIR      32  10  39 N5        30.33F                  
STAUNTON*      SUNNY     33  12  41 NW10G17   30.35F WCI  25          
WAYNESBORO*    CLOUDY    33   9  36 W7        30.32F                  
$$
WVZ021-048>050-054>055-091800-
EASTERN WEST VIRGINIA PANHANDLE
  
CITY           SKY/WX    TMP DP  RH WIND       PRES   REMARKS
MARTINSBURG    MOSUNNY   35  16  45 W21       30.33S WCI  24          
PETERSBURG*    CLOUDY    32  16  51 NW18      30.37S WCI  21          
$$
VAZ036>039-050-091800-
CENTRAL FOOTHILLS
  
CITY           SKY/WX    TMP DP  RH WIND       PRES   REMARKS
CHARLOTTESVILL MOSUNNY   37  12  35 CALM      30.35F                  
CULPEPER*      SUNNY     39  15  38 W13       30.36S                  
ORANGE*          N/A     37  14  38 NW10G16   30.36F                  
GORDONSVILLE*  FAIR      37  12  36 NW8G18    30.35S                  
WARRENTON*     FAIR      40   8  27 NW13G18   30.33F                  
$$
VAZ055>057-091800-
NORTH AND CENTRAL PIEDMONT
  
CITY           SKY/WX    TMP DP  RH WIND       PRES   REMARKS
FREDERICKSBRG* SUNNY     39  18  41 NW13G18   30.34F                  
STAFFORD*      SUNNY     37  16  43 NW13G20   30.38F WCI  28          
$$
NCZ024-NYZ072-PAZ021-071-VAZ022-071-091800-
OTHER REGIONAL OBSERVATIONS
  
CITY           SKY/WX    TMP DP  RH WIND       PRES   REMARKS
NEW YORK CITY    N/A     39  19  45 MISG        N/A                   
PHILADELPHIA   PTSUNNY   37  17  44 W20       30.22F WCI  27          
PITTSBURGH     CLOUDY    26  18  71 W10       30.35F WCI  16          
ROANOKE        MOSUNNY   32  11  41 NW17      30.41F WCI  21          
RICHMOND       SUNNY     39  13  34 NW10      30.35F                  
RALEIGH        SUNNY     38  14  37 N10       30.40F                  
$$
ANZ530>537-091800-
MARINE OBSERVATIONS
  
STATION/POSITION TIME  TEMP    WIND        PRES
                       AIR SEA DIR/SP/G
                 (UTC) (F)     (DEG/KT/KT) (MB)
THOMAS PT LIGHT  1700   36 45  300/ 20/ 23   N/A
BALT KEY BRIDGE  1648   36     280/ 20/ 24 1025.1F
COVE POINT       1648   35     340/ 20/ 28 1026.3F
LEWISETTA        1648   36 45  320/ 15/ 23 1026.5F
SOLOMONS ISLAND  1648   37 49  320/ 13/ 20   N/A
PINEY POINT      1648          330/ 21/ 24   N/A
$$